Time,TemperatureF,DewpointF,PressureIn,WindDirection,WindDirectionDegrees,WindSpeedMPH,WindSpeedGustMPH,Humidity,HourlyPrecipIn,Conditions,Clouds,dailyrainin,SoftwareType,DateUTC
2013-09-20 00:14:00,58.0,53.0,30.06,SSW,202,0.0,0.0,82,0.00,,,0.00,,2013-09-20 04:14:00,
2013-09-20 00:24:00,58.0,53.0,30.06,SSW,202,0.0,0.0,82,0.00,,,0.00,,2013-09-20 04:24:00,
2013-09-20 00:44:00,57.0,52.0,30.05,SSW,202,0.0,0.0,82,0.00,,,0.00,,2013-09-20 04:44:00,
2013-09-20 00:53:00,57.0,52.0,30.06,SSW,202,0.0,0.0,83,0.00,,,0.00,,2013-09-20 04:53:00,
2013-09-20 01:13:00,57.0,52.0,30.06,SSW,202,0.0,0.0,83,0.00,,,0.00,,2013-09-20 05:13:00,
2013-09-20 01:23:00,57.0,52.0,30.05,SSW,202,0.0,0.0,83,0.00,,,0.00,,2013-09-20 05:23:00,
2013-09-20 01:53:00,56.0,51.0,30.06,SSW,202,0.0,0.0,83,0.00,,,0.00,,2013-09-20 05:53:00,
2013-09-20 02:12:00,56.0,51.0,30.05,SSW,202,0.0,0.0,83,0.00,,,0.00,,2013-09-20 06:12:00,
2013-09-20 02:22:00,56.0,51.0,30.05,SSW,202,0.0,0.0,84,0.00,,,0.00,,2013-09-20 06:22:00,
2013-09-20 02:52:00,56.0,52.0,30.04,SSW,202,0.0,0.0,85,0.00,,,0.00,,2013-09-20 06:52:00,
2013-09-20 03:12:00,56.0,52.0,30.04,SSW,202,0.0,0.0,85,0.00,,,0.00,,2013-09-20 07:12:00,
2013-09-20 03:23:00,56.0,52.0,30.04,SSW,202,0.0,0.0,85,0.00,,,0.00,,2013-09-20 07:23:00,
2013-09-20 03:42:00,56.0,52.0,30.04,SSW,202,0.0,0.0,85,0.00,,,0.00,,2013-09-20 07:42:00,
2013-09-20 03:53:00,56.0,52.0,30.04,SSW,202,0.0,0.0,85,0.00,,,0.00,,2013-09-20 07:53:00,
2013-09-20 04:11:00,56.0,52.0,30.04,SSW,202,0.0,0.0,85,0.00,,,0.00,,2013-09-20 08:11:00,
2013-09-20 04:22:00,56.0,52.0,30.04,SSW,202,0.0,0.0,85,0.00,,,0.00,,2013-09-20 08:22:00,
2013-09-20 04:52:00,57.0,53.0,30.04,SSW,202,0.0,0.0,86,0.00,,,0.00,,2013-09-20 08:52:00,
2013-09-20 05:22:00,57.0,53.0,30.03,SSW,202,0.0,0.0,86,0.00,,,0.00,,2013-09-20 09:22:00,
2013-09-20 05:43:00,57.0,53.0,30.03,SSW,202,0.0,0.0,86,0.00,,,0.00,,2013-09-20 09:43:00,
2013-09-20 05:53:00,57.0,53.0,30.03,SSW,202,0.0,0.0,86,0.00,,,0.00,,2013-09-20 09:53:00,
2013-09-20 06:13:00,58.0,54.0,30.03,SSW,202,0.0,0.0,87,0.00,,,0.00,,2013-09-20 10:13:00,
2013-09-20 06:23:00,58.0,54.0,30.03,SSW,202,0.0,0.0,87,0.00,,,0.00,,2013-09-20 10:23:00,
2013-09-20 06:42:00,58.0,54.0,30.03,SSW,202,0.0,0.0,87,0.00,,,0.00,,2013-09-20 10:42:00,
2013-09-20 06:53:00,58.0,54.0,30.03,SSW,202,0.0,0.0,87,0.00,,,0.00,,2013-09-20 10:53:00,
2013-09-20 07:12:00,58.0,54.0,30.03,SSW,202,0.0,0.0,87,0.00,,,0.00,,2013-09-20 11:12:00,
2013-09-20 07:23:00,58.0,54.0,30.03,SSW,202,0.0,0.0,87,0.00,,,0.00,,2013-09-20 11:23:00,
2013-09-20 07:42:00,59.0,55.0,30.04,SSW,202,0.0,0.0,87,0.00,,,0.00,,2013-09-20 11:42:00,
2013-09-20 07:52:00,59.0,55.0,30.04,SSW,202,0.0,0.0,87,0.00,,,0.00,,2013-09-20 11:52:00,
2013-09-20 08:12:00,59.0,55.0,30.03,SSW,202,0.0,0.0,87,0.00,,,0.00,,2013-09-20 12:12:00,
2013-09-20 08:22:00,59.0,55.0,30.03,SSW,202,0.0,0.0,87,0.00,,,0.00,,2013-09-20 12:22:00,
2013-09-20 08:43:00,59.0,55.0,30.03,SSW,202,0.0,0.0,87,0.00,,,0.00,,2013-09-20 12:43:00,
2013-09-20 08:52:00,60.0,56.0,30.03,SSW,202,0.0,0.0,88,0.00,,,0.00,,2013-09-20 12:52:00,
2013-09-20 09:12:00,60.0,56.0,30.04,SSW,202,0.0,0.0,88,0.00,,,0.00,,2013-09-20 13:12:00,
2013-09-20 09:22:00,61.0,57.0,30.03,SSW,202,0.0,0.0,88,0.00,,,0.00,,2013-09-20 13:22:00,
2013-09-20 09:42:00,61.0,57.0,30.02,SSW,202,0.0,0.0,88,0.00,,,0.00,,2013-09-20 13:42:00,
2013-09-20 09:52:00,62.0,58.0,30.02,NNW,338,0.0,0.0,88,0.00,,,0.00,,2013-09-20 13:52:00,
2013-09-20 10:11:00,63.0,60.0,30.02,WNW,292,0.0,0.0,89,0.00,,,0.00,,2013-09-20 14:11:00,
2013-09-20 10:21:00,63.0,60.0,30.02,WNW,292,0.0,0.0,89,0.00,,,0.00,,2013-09-20 14:21:00,
2013-09-20 10:42:00,65.0,62.0,30.01,WSW,248,0.0,0.0,89,0.00,,,0.00,,2013-09-20 14:42:00,
2013-09-20 10:52:00,66.0,63.0,30.02,SW,225,0.0,0.0,89,0.00,,,0.00,,2013-09-20 14:52:00,
2013-09-20 11:12:00,67.0,63.0,30.01,SW,225,0.0,0.0,87,0.00,,,0.00,,2013-09-20 15:12:00,
2013-09-20 11:22:00,68.0,63.0,30.01,SSW,205,0.0,5.0,85,0.00,,,0.00,,2013-09-20 15:22:00,
2013-09-20 11:44:00,70.0,64.0,30.01,South,180,0.0,1.0,82,0.00,,,0.00,,2013-09-20 15:44:00,
2013-09-20 11:54:00,71.0,65.0,30.01,South,180,0.0,0.0,81,0.00,,,0.00,,2013-09-20 15:54:00,
2013-09-20 12:23:00,75.0,67.0,30.01,SSW,202,0.0,3.0,75,0.00,,,0.00,,2013-09-20 16:23:00,
2013-09-20 12:42:00,76.0,66.0,30.01,SW,225,0.0,6.0,72,0.00,,,0.00,,2013-09-20 16:42:00,
2013-09-20 12:53:00,75.0,65.0,30.01,SW,225,0.0,3.0,71,0.00,,,0.00,,2013-09-20 16:53:00,
2013-09-20 13:03:00,75.0,65.0,30.01,SW,225,0.0,3.0,71,0.00,,,0.00,,2013-09-20 17:03:00,
2013-09-20 13:13:00,75.0,65.0,30.01,SW,225,0.0,3.0,71,0.00,,,0.00,,2013-09-20 17:13:00,
2013-09-20 13:24:00,74.0,64.0,30.00,SW,225,0.0,0.0,72,0.00,,,0.00,,2013-09-20 17:24:00,
2013-09-20 13:53:00,74.0,65.0,29.99,SW,225,0.0,3.0,74,0.00,,,0.00,,2013-09-20 17:53:00,
2013-09-20 14:12:00,74.0,65.0,29.99,SSW,202,0.0,6.0,73,0.00,,,0.00,,2013-09-20 18:12:00,
2013-09-20 14:22:00,74.0,65.0,29.98,South,188,0.0,5.0,74,0.00,,,0.00,,2013-09-20 18:22:00,
2013-09-20 14:42:00,74.0,65.0,29.98,SSW,202,1.0,5.0,74,0.00,,,0.00,,2013-09-20 18:42:00,
2013-09-20 14:52:00,74.0,65.0,29.97,SW,225,0.0,3.0,73,0.00,,,0.00,,2013-09-20 18:52:00,
2013-09-20 15:02:00,74.0,65.0,29.97,SW,225,0.0,3.0,73,0.00,,,0.00,,2013-09-20 19:02:00,
2013-09-20 15:12:00,74.0,65.0,29.97,SW,225,0.0,3.0,73,0.00,,,0.00,,2013-09-20 19:12:00,
2013-09-20 15:22:00,74.0,65.0,29.97,SSW,202,1.0,3.0,74,0.00,,,0.00,,2013-09-20 19:22:00,
2013-09-20 15:53:00,74.0,65.0,29.95,SW,225,1.0,3.0,74,0.00,,,0.00,,2013-09-20 19:53:00,
2013-09-20 16:03:00,74.0,65.0,29.95,SW,225,1.0,3.0,74,0.00,,,0.00,,2013-09-20 20:03:00,
2013-09-20 16:12:00,74.0,65.0,29.95,SW,225,1.0,3.0,74,0.00,,,0.00,,2013-09-20 20:12:00,
2013-09-20 16:22:00,75.0,66.0,29.94,SSW,205,0.0,5.0,74,0.00,,,0.00,,2013-09-20 20:22:00,
2013-09-20 16:42:00,75.0,65.0,29.94,SSW,202,0.0,5.0,72,0.00,,,0.00,,2013-09-20 20:42:00,
2013-09-20 16:52:00,75.0,66.0,29.94,SW,225,1.0,6.0,73,0.00,,,0.00,,2013-09-20 20:52:00,
2013-09-20 17:12:00,74.0,65.0,29.94,SSW,202,0.0,0.0,74,0.00,,,0.00,,2013-09-20 21:12:00,
2013-09-20 17:21:00,74.0,65.0,29.94,SSW,202,1.0,5.0,74,0.00,,,0.00,,2013-09-20 21:21:00,
2013-09-20 17:54:00,74.0,66.0,29.92,WSW,243,0.0,0.0,75,0.00,,,0.00,,2013-09-20 21:54:00,
2013-09-20 18:14:00,74.0,66.0,29.92,West,270,0.0,0.0,75,0.00,,,0.00,,2013-09-20 22:14:00,
2013-09-20 18:24:00,74.0,66.0,29.92,SW,225,0.0,0.0,75,0.00,,,0.00,,2013-09-20 22:24:00,
2013-09-20 18:44:00,74.0,66.0,29.91,SSW,202,0.0,0.0,75,0.00,,,0.00,,2013-09-20 22:44:00,
2013-09-20 18:53:00,74.0,66.0,29.91,West,270,0.0,0.0,76,0.00,,,0.00,,2013-09-20 22:53:00,
2013-09-20 19:13:00,73.0,65.0,29.91,West,270,0.0,0.0,76,0.00,,,0.00,,2013-09-20 23:13:00,
2013-09-20 19:22:00,73.0,65.0,29.91,NW,315,0.0,0.0,75,0.00,,,0.00,,2013-09-20 23:22:00,
2013-09-20 19:53:00,72.0,64.0,29.91,NW,315,0.0,0.0,76,0.00,,,0.00,,2013-09-20 23:53:00,
2013-09-20 20:11:00,71.0,63.0,29.91,NW,315,0.0,14.0,77,0.00,,,0.00,,2013-09-21 00:11:00,
2013-09-20 20:22:00,71.0,63.0,29.91,NW,315,0.0,0.0,77,0.00,,,0.00,,2013-09-21 00:22:00,
2013-09-20 20:42:00,70.0,62.0,29.91,NW,315,0.0,0.0,77,0.00,,,0.00,,2013-09-21 00:42:00,
2013-09-20 20:52:00,70.0,62.0,29.90,NW,315,0.0,0.0,77,0.00,,,0.00,,2013-09-21 00:52:00,
2013-09-20 21:12:00,69.0,62.0,29.90,NW,315,0.0,0.0,79,0.00,,,0.00,,2013-09-21 01:12:00,
2013-09-20 21:22:00,68.0,61.0,29.90,NW,315,0.0,0.0,79,0.00,,,0.00,,2013-09-21 01:22:00,
2013-09-20 21:42:00,68.0,61.0,29.91,NW,315,0.0,0.0,79,0.00,,,0.00,,2013-09-21 01:42:00,
2013-09-20 21:52:00,67.0,61.0,29.91,NW,315,0.0,0.0,80,0.00,,,0.00,,2013-09-21 01:52:00,
2013-09-20 22:12:00,67.0,61.0,29.91,NW,315,0.0,0.0,80,0.00,,,0.00,,2013-09-21 02:12:00,
2013-09-20 22:22:00,67.0,61.0,29.91,NW,315,0.0,0.0,80,0.00,,,0.00,,2013-09-21 02:22:00,
2013-09-20 22:42:00,67.0,61.0,29.91,NW,315,0.0,0.0,80,0.00,,,0.00,,2013-09-21 02:42:00,
2013-09-20 22:52:00,66.0,60.0,29.90,NW,315,0.0,0.0,80,0.00,,,0.00,,2013-09-21 02:52:00,
2013-09-20 23:12:00,66.0,60.0,29.90,NW,315,0.0,0.0,81,0.00,,,0.00,,2013-09-21 03:12:00,
2013-09-20 23:22:00,66.0,60.0,29.89,NW,315,0.0,0.0,81,0.00,,,0.00,,2013-09-21 03:22:00,
2013-09-20 23:55:00,65.0,59.0,29.89,NW,315,0.0,0.0,82,0.00,,,0.00,,2013-09-21 03:55:00,